Location: Holyhead Bay
(53.3667°N, 4.6667°W)
Time: 07:03:43
(UTC+00:00)

Cosmos 841 Rocket - Pass Details

Date: 24 November 2020
Orbit: 747 x 772 km, 74.0° (Epoch: 24 January)

Event Time Altitude Azimuth Distance (km) Brightness Sun altitude
Rises 17:33:05 0° 213° (SSW) 3,223 7.6 -11.9°
Reaches altitude 10° 17:35:29 10° 215° (SW) 2,297 6.8 -12.2°
Maximum altitude 17:40:40 68° 299° (WNW) 821 3.8 -12.9°
Drops below altitude 10° 17:45:52 10° 23° (NNE) 2,296 5.6 -13.7°
Enters shadow 17:46:34 - 24° (NNE) 2,565 5.8 -13.8°
